Weather History for Sterling, IL

Change the Weather History Date:

Friday, November 18, 2011

  Actual Average Record
Temperature  
Mean Temperature 42 °F -  
Max Temperature 55 °F 44 °F 71 °F (1999)
Min Temperature 30 °F 28 °F 8 °F (2014)
Degree Days  
Heating Degree Days 22    
Moisture  
Dew Point 19 °F    
Average Humidity 40    
Maximum Humidity 55    
Minimum Humidity 25    
Precipitation  
Precipitation 0.00 in - - ()
Sea Level Pressure  
Sea Level Pressure 29.97 in    
Wind  
Wind Speed 8 mph (South)    
Max Wind Speed 14 mph    
Max Gust Speed 26 mph    
Visibility 10 miles    
Events      
Averages and records for this station are not official NWS values.
T = Trace of Precipitation, MM = Missing Value Source: NWS Daily Summary

Daily Weather History Graph

Daily Weather History Graph

Search for Another Location

Airport:

Trip Planner

Search our weather history database for the weather conditions in past years. The results will help you decide how hot, cold, wet, or windy it might be!

Date:

Astronomy

Nov. 18, 2011 Rise Set
Actual Time 6:51 AM CST 4:35 PM CST
Civil Twilight 6:21 AM CST 5:06 PM CST
Nautical Twilight 5:47 AM CST 5:39 PM CST
Astronomical Twilight 5:14 AM CST 6:12 PM CST
Moon No Moon Rise 12:28 PM CST (11/18)
Length of Visible Light 10h 44m
Length of Day
9h 44m
Waning Gibbous, 49% of the Moon is Illuminated
Nov 18
Waning Gibbous
Nov 25
New
Dec 2
First Quarter
Dec 10
Full
Dec 17
Last Quarter

Hourly Weather History & Observations

Time (CST) Temp. Windchill Dew Point Humidity Pressure Visibility Wind Dir Wind Speed Gust Speed Precip Events Conditions
12:15 AM 30.2 °F 23.4 °F 14.0 °F 51% 30.15 in 10.0 mi South 6.9 mph - N/A   Clear
12:35 AM 30.2 °F 23.4 °F 14.0 °F 51% 30.14 in 10.0 mi South 6.9 mph - N/A   Clear
12:55 AM 30.2 °F 24.3 °F 14.0 °F 51% 30.13 in 10.0 mi South 5.8 mph - N/A   Clear
1:15 AM 32.0 °F 24.8 °F 14.0 °F 48% 30.12 in 10.0 mi South 8.1 mph - N/A   Clear
1:35 AM 32.0 °F 24.8 °F 14.0 °F 48% 30.12 in 10.0 mi South 8.1 mph - N/A   Clear
1:55 AM 32.0 °F 24.8 °F 14.0 °F 48% 30.11 in 10.0 mi South 8.1 mph - N/A   Clear
2:35 AM 32.0 °F 23.6 °F 14.0 °F 48% 30.10 in 10.0 mi South 10.4 mph - N/A   Clear
2:55 AM 33.8 °F 29.6 °F 14.0 °F 44% 30.11 in 10.0 mi SSW 4.6 mph 16.1 mph N/A   Clear
3:15 AM 32.0 °F 27.5 °F 14.0 °F 48% 30.11 in 10.0 mi SSW 4.6 mph - N/A   Clear
3:35 AM 32.0 °F 28.7 °F 14.0 °F 48% 30.10 in 10.0 mi SSW 3.5 mph - N/A   Clear
3:55 AM 32.0 °F 26.4 °F 15.8 °F 51% 30.09 in 10.0 mi SSW 5.8 mph - N/A   Clear
4:15 AM 32.0 °F 28.7 °F 15.8 °F 51% 30.09 in 10.0 mi SSW 3.5 mph - N/A   Clear
4:35 AM 30.2 °F 24.3 °F 15.8 °F 55% 30.08 in 10.0 mi SSW 5.8 mph - N/A   Clear
4:55 AM 32.0 °F 26.4 °F 15.8 °F 51% 30.07 in 10.0 mi South 5.8 mph - N/A   Clear
5:35 AM 33.8 °F 27.0 °F 17.6 °F 52% 30.06 in 10.0 mi South 8.1 mph 17.3 mph N/A   Clear
6:15 AM 35.6 °F 26.6 °F 17.6 °F 48% 30.04 in 10.0 mi South 13.8 mph 21.9 mph N/A   Clear
6:35 AM 35.6 °F 28.0 °F 17.6 °F 48% 30.04 in 10.0 mi South 10.4 mph 19.6 mph N/A   Clear
6:55 AM 35.6 °F 28.6 °F 17.6 °F 48% 30.04 in 10.0 mi South 9.2 mph 20.7 mph N/A   Clear
7:15 AM 35.6 °F 27.5 °F 17.6 °F 48% 30.04 in 10.0 mi South 11.5 mph 18.4 mph N/A   Clear
7:35 AM 35.6 °F 29.2 °F 17.6 °F 48% 30.04 in 10.0 mi South 8.1 mph 18.4 mph N/A   Clear
7:55 AM 37.4 °F 30.3 °F 17.6 °F 45% 30.03 in 10.0 mi South 10.4 mph 18.4 mph N/A   Clear
8:15 AM 37.4 °F 30.3 °F 19.4 °F 48% 30.03 in 10.0 mi South 10.4 mph 20.7 mph N/A   Clear
8:35 AM 39.2 °F 31.2 °F 19.4 °F 45% 30.01 in 10.0 mi South 13.8 mph 24.2 mph N/A   Clear
8:55 AM 41.0 °F 33.9 °F 19.4 °F 42% 30.01 in 10.0 mi South 12.7 mph 20.7 mph N/A   Clear
9:15 AM 44.6 °F 38.8 °F 19.4 °F 37% 29.99 in 10.0 mi South 11.5 mph 23.0 mph N/A   Clear
9:35 AM 44.6 °F 38.4 °F 19.4 °F 37% 30.00 in 10.0 mi South 12.7 mph 24.2 mph N/A   Clear
9:55 AM 46.4 °F 41.1 °F 19.4 °F 34% 30.00 in 10.0 mi South 11.5 mph 20.7 mph N/A   Clear
10:15 AM 46.4 °F 40.7 °F 19.4 °F 34% 30.00 in 10.0 mi SSW 12.7 mph 24.2 mph N/A   Clear
10:35 AM 46.4 °F 41.9 °F 21.2 °F 37% 29.99 in 10.0 mi SSW 9.2 mph 24.2 mph N/A   Clear
10:55 AM 46.4 °F 42.4 °F 19.4 °F 34% 29.98 in 10.0 mi South 8.1 mph 20.7 mph N/A   Clear
11:15 AM 46.4 °F 41.1 °F 21.2 °F 37% 29.97 in 10.0 mi SSW 11.5 mph 25.3 mph N/A   Clear
11:35 AM 48.2 °F - 21.2 °F 34% 29.96 in 10.0 mi SSW 10.4 mph 25.3 mph N/A   Clear
11:55 AM 48.2 °F - 21.2 °F 34% 29.95 in 10.0 mi South 10.4 mph 20.7 mph N/A   Clear
12:15 PM 51.8 °F - 21.2 °F 30% 29.93 in 10.0 mi South 10.4 mph 20.7 mph N/A   Clear
12:35 PM 51.8 °F - 21.2 °F 30% 29.91 in 10.0 mi SSW 8.1 mph 20.7 mph N/A   Clear
12:55 PM 51.8 °F - 21.2 °F 30% 29.89 in 10.0 mi South 8.1 mph 20.7 mph N/A   Clear
1:15 PM 53.6 °F - 23.0 °F 30% 29.88 in 10.0 mi South 6.9 mph 17.3 mph N/A   Clear
1:35 PM 53.6 °F - 21.2 °F 28% 29.87 in 10.0 mi SSW 9.2 mph 19.6 mph N/A   Clear
1:55 PM 53.6 °F - 19.4 °F 26% 29.86 in 10.0 mi SSW 11.5 mph 20.7 mph N/A   Clear
2:15 PM 55.4 °F - 19.4 °F 25% 29.85 in 10.0 mi SSW 11.5 mph 21.9 mph N/A   Clear
2:55 PM 55.4 °F - 19.4 °F 25% 29.85 in 10.0 mi SSW 9.2 mph 26.5 mph N/A   Clear
3:15 PM 55.4 °F - 19.4 °F 25% 29.84 in 10.0 mi South 8.1 mph 16.1 mph N/A   Clear
3:35 PM 53.6 °F - 19.4 °F 26% 29.83 in 10.0 mi South 10.4 mph 19.6 mph N/A   Clear
3:55 PM 51.8 °F - 19.4 °F 28% 29.83 in 10.0 mi South 10.4 mph - N/A   Clear
4:15 PM 51.8 °F - 19.4 °F 28% 29.84 in 10.0 mi South 8.1 mph - N/A   Clear
4:35 PM 50.0 °F - 19.4 °F 30% 29.84 in 10.0 mi South 6.9 mph - N/A   Clear
5:15 PM 48.2 °F - 19.4 °F 32% 29.83 in 10.0 mi South 6.9 mph - N/A   Clear
5:35 PM 46.4 °F 42.9 °F 19.4 °F 34% 29.84 in 10.0 mi South 6.9 mph - N/A   Clear
5:55 PM 44.6 °F 40.7 °F 21.2 °F 39% 29.84 in 10.0 mi SSE 6.9 mph - N/A   Clear
6:15 PM 44.6 °F 40.7 °F 21.2 °F 39% 29.84 in 10.0 mi South 6.9 mph - N/A   Clear
6:35 PM 44.6 °F 40.2 °F 21.2 °F 39% 29.84 in 10.0 mi South 8.1 mph - N/A   Clear
6:55 PM 44.6 °F 40.7 °F 21.2 °F 39% 29.84 in 10.0 mi South 6.9 mph - N/A   Clear
7:15 PM 44.6 °F 40.2 °F 21.2 °F 39% 29.85 in 10.0 mi South 8.1 mph 17.3 mph N/A   Clear
7:35 PM 44.6 °F 40.2 °F 21.2 °F 39% 29.85 in 10.0 mi South 8.1 mph - N/A   Clear
7:55 PM 44.6 °F 39.7 °F 21.2 °F 39% 29.85 in 10.0 mi South 9.2 mph 16.1 mph N/A   Clear
8:15 PM 44.6 °F 40.2 °F 21.2 °F 39% 29.85 in 10.0 mi South 8.1 mph - N/A   Clear
8:55 PM 42.8 °F 37.5 °F 21.2 °F 42% 29.86 in 10.0 mi South 9.2 mph - N/A   Clear
9:15 PM 42.8 °F 38.0 °F 21.2 °F 42% 29.86 in 10.0 mi South 8.1 mph - N/A   Clear
9:35 PM 42.8 °F 38.0 °F 21.2 °F 42% 29.87 in 10.0 mi South 8.1 mph - N/A   Clear
9:55 PM 42.8 °F 38.6 °F 21.2 °F 42% 29.87 in 10.0 mi South 6.9 mph - N/A   Clear
10:15 PM 42.8 °F 38.0 °F 21.2 °F 42% 29.87 in 10.0 mi South 8.1 mph - N/A   Clear
10:35 PM 42.8 °F 38.6 °F 23.0 °F 46% 29.87 in 10.0 mi South 6.9 mph - N/A   Clear
10:55 PM 42.8 °F 38.0 °F 23.0 °F 46% 29.87 in 10.0 mi South 8.1 mph - N/A   Clear
11:15 PM 42.8 °F 37.5 °F 23.0 °F 46% 29.87 in 10.0 mi South 9.2 mph - N/A   Scattered Clouds
11:35 PM 42.8 °F 37.5 °F 23.0 °F 46% 29.87 in 10.0 mi South 9.2 mph 16.1 mph N/A   Scattered Clouds
11:55 PM 42.8 °F 37.5 °F 23.0 °F 46% 29.88 in 10.0 mi South 9.2 mph - N/A   Clear